Weather in Us'va

Russia / Perm Krai     58°41′04″N   57°38′28″E
temp.,
°C
wind,
m/s
gust,
m/s
humid.,
%
clouds,
%
prec.,
mm/h
press.,
hPa
HPBL,
m
4 july, mon
mon423:00+10nne289281 0.1 1011353
02:00+10ene41175100 0.0 1012651
05:00+9ene41080100 0.0 1013538
08:00+10ene57605 0.0 1014847
11:00+13ne5745100 0.0 10131881
14:00+12ne4751100 0.0 10141766
17:00+13ne4750100 0.0 10141900
20:00+13ene26555 0.0 10141188
5 july, tue
tue523:00+7wnw117821 0.0 101510
02:00+6nnw118269 0.0 101510
05:00+6n1182100 0.0 101512
08:00+12n2362100 0.0 1014248
11:00+17n3544100 0.0 10141307
14:00+20n353999 0.0 10121925
17:00+21nnw464162 0.0 10122006
20:00+19nw38537 0.0 1011550
6 july, wed
wed623:00+12nw118076 0.0 101211
02:00+11nnw11855 0.0 101210
05:00+12nw118084 0.0 101218
08:00+13wnw1391100 0.6 1012110
11:00+18nnw377493 0.7 1012427
14:00+22nnw367167 0.6 10111287
17:00+21nnw368386 3.3 1012763
20:00+16nw119699 3.0 101226
7 july, thu
thu723:00+15n229527 3.2 101334
02:00+14se11965 0.0 101415
05:00+12se119921 0.0 101525
08:00+16sse129338 0.0 1016243
11:00+22s216415 0.0 1016825
14:00+23ssw226498 0.4 10151075
17:00+24s2263100 1.3 1015747
20:00+20s249033 1.2 101575
8 july, fri
fri823:00+16ssw22970 1.2 101636
02:00+15s239869 0.8 101659
05:00+15s229919 0.9 101645
08:00+19ssw24912 0.0 1016261
11:00+24sw356197 0.0 1015962
14:00+23wsw3584100 1.5 1014928
17:00+22sw3688100 5.3 1014642
20:00+20wsw2495100 2.8 101496